This demonstration page uses our WeatherBlox Daily Observations layout. Learn more.

38.89511, -77.03637

Hourly Observations for July 27, 2017

Temp ( °F °C ) Dew Point ( °F °C ) Humidity (%) Winds ( mph kmh ) Pressure ( in mb ) Visibility ( mi km ) Precip ( " mm )
12:52 am 00:52 Partly Cloudy 74 23.3 70 21.1 88 88 SSE 7 11 30.09 1019 10 16.09344 0 0
1:52 am 01:52 Mostly Cloudy 74 23.3 70 21.1 88 88 SSE 12 19 30.06 1018 10 16.09344 0 0
2:52 am 02:52 Mostly Clear 74 23.3 70 21.1 88 88 SSE 9 15 30.03 1017 10 16.09344 0 0
3:39 am 03:39 Mostly Cloudy 74 23.3 70 21.1 88 88 S 10 17 30.06 1018 10 16.09344 0 0
3:52 am 03:52 Mostly Cloudy 74 23.3 69 20.6 85 85 S 9 15 30.03 1017 10 16.09344 0 0
4:52 am 04:52 Mostly Cloudy 73 22.8 69 20.6 87 87 SSE 8 13 30.03 1017 10 16.09344 0 0
5:00 am 05:00 Mostly Cloudy 73 22.8 69 20.6 87 87 SSE 8 13 30.06 1018 10 16.09344 0 0
5:23 am 05:23 Cloudy 73 22.8 69 20.6 87 87 SSE 6 9 30.06 1018 10 16.09344 0 0
5:52 am 05:52 Cloudy 73 22.8 68 20 84 84 S 13 20 30.03 1017 10 16.09344 0 0
6:52 am 06:52 Cloudy 73 22.8 68 20 84 84 SSW 12 19 30.03 1017 10 16.09344 0 0
7:52 am 07:52 Cloudy 74 23.3 69 20.6 85 85 S 10 17 30.03 1017 10 16.09344 0 0
8:52 am 08:52 Mostly Cloudy 76 24.4 70 21.1 82 82 S 10 17 30.03 1017 10 16.09344 0 0
9:52 am 09:52 Cloudy 77 25 70 21.1 79 79 S 9 15 30 1016 10 16.09344 0 0
10:03 am 10:03 Cloudy 78 25.6 70 21.1 76 76 SW 9 15 30 1016 10 16.09344 0 0
10:52 am 10:52 Cloudy 79 26.1 72 22.2 79 79 SSE 10 17 29.97 1015 10 16.09344 0 0
11:52 am 11:52 Cloudy 82 27.8 73 22.8 74 74 SSE 10 17 29.97 1015 10 16.09344 0 0
12:49 pm 12:49 Cloudy 82 28 73 23 74 74 SSW 8 13 29.94 1014 10 16.09344 0 0
12:52 pm 12:52 Cloudy 83 28.3 73 22.8 72 72 S 8 13 29.94 1014 10 16.09344 0 0
1:52 pm 13:52 Cloudy 83 28.3 72 22.2 70 70 SW 10 17 29.91 1013 10 16.09344 0 0
2:01 pm 14:01 Cloudy 84 28.9 73 22.8 70 70 SW 12 19 29.94 1014 10 16.09344 0 0
2:52 pm 14:52 Cloudy 85 29.4 73 22.8 68 68 SSW 8 13 29.88 1012 10 16.09344 0 0
3:52 pm 15:52 Cloudy 84 28.9 75 23.9 74 74 S 9 15 29.88 1012 10 16.09344 0 0
4:26 pm 16:26 Cloudy 84 28.9 75 23.9 74 74 S 8 13 29.88 1012 10 16.09344 0 0
4:44 pm 16:44 Cloudy 86 30 76 24.4 72 72 S 8 13 29.88 1012 10 16.09344 0 0
4:52 pm 16:52 Cloudy 85 29.4 75 23.9 72 72 SSE 8 13 29.85 1011 10 16.09344 0 0
5:52 pm 17:52 Cloudy 84 28.9 76 24.4 77 77 S 9 15 29.85 1011 10 16.09344 0 0
6:52 pm 18:52 Cloudy 84 28.9 76 24.4 77 77 S 10 17 29.85 1011 10 16.09344 0 0
7:52 pm 19:52 Cloudy 83 28.3 76 24.4 79 79 S 7 11 29.85 1011 10 16.09344 0 0
8:52 pm 20:52 Cloudy with Light Thunderstorms 83 28.3 76 24.4 79 79 S 7 11 29.85 1011 10 16.09344 0.001 0.001
9:11 pm 21:11 Cloudy 83 28.3 76 24.4 79 79 S 6 9 29.85 1011 10 16.09344 0.001 0.001
9:52 pm 21:52 Cloudy 82 27.8 76 24.4 82 82 SE 6 9 29.83 1010 10 16.09344 0.001 0.001
10:52 pm 22:52 Partly Cloudy 81 27.2 76 24.4 85 85 SSE 7 11 29.83 1010 8 12.874752 0 0
11:52 pm 23:52 Mostly Cloudy 80 26.7 76 24.4 87 87 S 7 11 29.83 1010 10 16.09344 0 0

Powered by AerisWeather